Flag Weather past 2 weeks in Reykjavik, Iceland

Now
43 °F

Sunny.


Feels Like: 35 °F
Forecast: 32 / 44 °F
Wind: 16 mph from East

Location: Reykjavik Airport

Current Time: Oct 30, 2014 at 1:02:58 PM

Latest Report: Oct 30, 2014 at 12:00 PM


Visibility: 10 mi

Pressure: 29.86 "Hg

Humidity: 42%

Dew point: 21 °F

Location of ReykjavikLocation

Historic Weather in Reykjavik — Graph

°F

Reykjavik temperature yesterday

Maximum temperature yesterday: 37 °F (at 2:00 PM)
Minimum temperature yesterday: 27 °F (at 10:00 AM)
Average temperature yesterday: 34 °F

Past Weeks' High & Low Weather Summary

 TemperatureHumidityPressure
High50 °F (Oct 16, 2:00 PM)93% (Oct 19, 4:00 AM)29.95 "Hg (Oct 19, 4:00 AM)
Low27 °F (Oct 27, 4:00 AM)40% (Oct 16, 1:00 PM)28.71 "Hg (Oct 25, 3:00 PM)
Average38 °F70%29.37 "Hg
* Reported Oct 15 12:00 Noon — Oct 30 12:00 Noon, Reykjavik, Weather by CustomWeather, © 2014

Note: Actual official high and low records may vary slightly from our data, if they occured in-between our weather recording intervals... More about our weather records

Advertising

Reykjavik weather history for previous 24 hours

 ConditionsComfort  
Time TempWeatherWind HumidityBarometerVisibility
12:00 PM
Oct 30
43 °FSunny.16 mph42%29.86 "Hg10 mi
11:00 AM41 °FSunny.14 mph45%29.86 "Hg10 mi
10:00 AM39 °FSunny.22 mph52%29.89 "Hg10 mi
9:00 AM41 °FPassing clouds.17 mph53%29.89 "HgN/A
8:00 AM39 °FPassing clouds.18 mph56%29.89 "HgN/A
7:00 AM39 °FMostly cloudy.13 mph56%29.89 "HgN/A
6:00 AM39 °FClear.13 mph56%29.89 "Hg10 mi
5:00 AM39 °FPassing clouds.14 mph56%29.89 "HgN/A
4:00 AM37 °FPassing clouds.14 mph60%29.92 "HgN/A
3:00 AM37 °FPassing clouds.14 mph56%29.92 "HgN/A
2:00 AM37 °FPassing clouds.15 mph52%29.92 "HgN/A
1:00 AM37 °FPassing clouds.15 mph48%29.92 "HgN/A
12:00 AM37 °FPassing clouds.13 mph48%29.95 "HgN/A
11:00 PM
Oct 29
37 °FPassing clouds.13 mph48%29.95 "HgN/A
10:00 PM36 °FPassing clouds.12 mph56%29.95 "HgN/A
9:00 PM36 °FPassing clouds.12 mph56%29.95 "HgN/A
8:00 PM37 °FPassing clouds.13 mph52%29.95 "HgN/A
7:00 PM36 °FPassing clouds.10 mph56%29.95 "HgN/A
6:00 PM34 °FPassing clouds.12 mph60%29.95 "HgN/A
5:00 PM36 °FSunny.7 mph52%29.92 "Hg10 mi
4:00 PM37 °FSunny.13 mph52%29.95 "Hg10 mi
3:00 PM37 °FPassing clouds.10 mph52%29.95 "HgN/A
2:00 PM37 °FPassing clouds.9 mph48%29.95 "HgN/A
1:00 PM34 °FScattered clouds.7 mph56%29.95 "HgN/A
Weather by CustomWeather, © 2014

See weather overviewHow to use our weather pages